Location: Newark
(55.7816°N, 8.2389°E)
Time: 11:14:02
(UTC+00:00)

LilacSat-2 - Pass Details

Date: 23 February 2020
Orbit: 514 x 534 km, 97.5° (Epoch: 04 April)

Event Time Altitude Azimuth Distance (km) Brightness Sun altitude
Rises 04:20:38 0° 26° (NNE) 2,654 ? -19.5°
Reaches altitude 10° 04:23:19 10° 46° (NE) 1,763 ? -19.1°
Maximum altitude 04:25:55 17° 90° (E) 1,355 ? -18.7°
Drops below altitude 10° 04:28:30 10° 133° (SE) 1,760 ? -18.4°
Sets 04:31:10 0° 153° (SSE) 2,646 ? -18.0°
